TimeEDT,TemperatureF,Dew PointF,Humidity,Sea Level PressureIn,VisibilityMPH,Wind Direction,Wind SpeedMPH,Gust SpeedMPH,PrecipitationIn,Events,Conditions,WindDirDegrees,DateUTC
12:15 AM,62.6,59.0,88,30.02,10.0,Calm,Calm,-,N/A,,Mostly Cloudy,0,2013-05-10 04:15:00
12:35 AM,62.6,59.0,88,30.02,10.0,Calm,Calm,-,N/A,,Mostly Cloudy,0,2013-05-10 04:35:00
12:55 AM,62.6,59.0,88,30.02,10.0,Calm,Calm,-,N/A,,Mostly Cloudy,0,2013-05-10 04:55:00
1:55 AM,62.6,59.0,88,30.01,10.0,Calm,Calm,-,N/A,,Mostly Cloudy,0,2013-05-10 05:55:00
2:15 AM,62.6,59.0,88,30.01,10.0,Calm,Calm,-,N/A,,Overcast,0,2013-05-10 06:15:00
2:35 AM,62.6,59.0,88,30.00,10.0,Calm,Calm,-,N/A,,Overcast,0,2013-05-10 06:35:00
2:55 AM,62.6,59.0,88,29.99,10.0,Calm,Calm,-,N/A,,Mostly Cloudy,0,2013-05-10 06:55:00
3:15 AM,62.6,59.0,88,29.99,10.0,Calm,Calm,-,N/A,,Mostly Cloudy,0,2013-05-10 07:15:00
3:35 AM,62.6,59.0,88,29.99,10.0,Calm,Calm,-,N/A,,Scattered Clouds,0,2013-05-10 07:35:00
3:55 AM,62.6,59.0,88,29.98,10.0,Calm,Calm,-,N/A,,Scattered Clouds,0,2013-05-10 07:55:00
4:15 AM,62.6,59.0,88,29.98,10.0,Calm,Calm,-,N/A,,Scattered Clouds,0,2013-05-10 08:15:00
4:55 AM,64.4,57.2,77,29.97,10.0,SSW,3.5,-,N/A,,Mostly Cloudy,200,2013-05-10 08:55:00
5:15 AM,66.2,55.4,68,29.97,10.0,SSW,4.6,-,N/A,,Scattered Clouds,210,2013-05-10 09:15:00
5:55 AM,64.4,55.4,73,29.97,10.0,South,3.5,-,N/A,,Clear,190,2013-05-10 09:55:00
6:15 AM,64.4,57.2,77,29.97,10.0,SSW,3.5,-,N/A,,Scattered Clouds,200,2013-05-10 10:15:00
6:35 AM,64.4,57.2,77,29.97,10.0,Calm,Calm,-,N/A,,Scattered Clouds,0,2013-05-10 10:35:00
7:15 AM,64.4,57.2,77,29.98,10.0,Calm,Calm,-,N/A,,Mostly Cloudy,0,2013-05-10 11:15:00
7:35 AM,64.4,57.2,77,29.97,10.0,Calm,Calm,-,N/A,,Scattered Clouds,0,2013-05-10 11:35:00
8:15 AM,68.0,59.0,73,29.98,10.0,SSW,4.6,-,N/A,,Clear,210,2013-05-10 12:15:00
8:35 AM,68.0,59.0,73,29.98,10.0,SSW,4.6,-,N/A,,Clear,210,2013-05-10 12:35:00
9:15 AM,71.6,59.0,64,29.97,10.0,SSW,4.6,-,N/A,,Clear,200,2013-05-10 13:15:00
9:35 AM,73.4,59.0,61,29.97,10.0,SSW,8.1,-,N/A,,Clear,210,2013-05-10 13:35:00
9:55 AM,75.2,60.8,61,29.97,10.0,SSW,8.1,-,N/A,,Clear,210,2013-05-10 13:55:00
10:15 AM,75.2,59.0,57,29.96,10.0,SW,8.1,-,N/A,,Clear,220,2013-05-10 14:15:00
10:35 AM,77.0,59.0,54,29.96,10.0,SSW,8.1,-,N/A,,Clear,210,2013-05-10 14:35:00
10:55 AM,77.0,59.0,54,29.96,10.0,SW,10.4,-,N/A,,Clear,220,2013-05-10 14:55:00
11:15 AM,78.8,60.8,54,29.95,10.0,WSW,9.2,-,N/A,,Scattered Clouds,240,2013-05-10 15:15:00
11:35 AM,78.8,60.8,54,29.96,10.0,SSW,9.2,-,N/A,,Scattered Clouds,210,2013-05-10 15:35:00
11:55 AM,80.6,60.8,51,29.96,10.0,SW,10.4,-,N/A,,Clear,220,2013-05-10 15:55:00
12:15 PM,78.8,60.8,54,29.96,10.0,SW,9.2,-,N/A,,Scattered Clouds,220,2013-05-10 16:15:00
12:35 PM,78.8,60.8,54,29.95,10.0,SW,10.4,16.1,N/A,,Mostly Cloudy,230,2013-05-10 16:35:00
1:15 PM,78.8,60.8,54,29.93,10.0,SW,11.5,19.6,N/A,,Scattered Clouds,230,2013-05-10 17:15:00
1:35 PM,78.8,60.8,54,29.92,10.0,SSW,9.2,17.3,N/A,,Scattered Clouds,210,2013-05-10 17:35:00
1:55 PM,78.8,60.8,54,29.91,10.0,SW,6.9,16.1,N/A,,Clear,220,2013-05-10 17:55:00
2:15 PM,78.8,60.8,54,29.90,10.0,SW,10.4,-,N/A,,Scattered Clouds,230,2013-05-10 18:15:00
2:35 PM,77.0,60.8,57,29.90,10.0,SW,11.5,-,N/A,,Mostly Cloudy,220,2013-05-10 18:35:00
8:55 PM,64.4,62.6,94,29.88,10.0,SW,5.8,-,N/A,,Unknown,220,2013-05-11 00:55:00
9:15 PM,64.4,62.6,94,29.88,7.0,SW,8.1,-,N/A,Rain,Light Rain,230,2013-05-11 01:15:00
9:35 PM,64.4,62.6,94,29.88,4.0,SW,6.9,-,N/A,,Overcast,220,2013-05-11 01:35:00
9:55 PM,64.4,62.6,94,29.88,7.0,SW,4.6,-,N/A,,Overcast,220,2013-05-11 01:55:00
10:15 PM,64.4,62.6,94,29.89,10.0,SW,8.1,-,N/A,,Overcast,220,2013-05-11 02:15:00
10:35 PM,64.4,62.6,94,29.89,10.0,SW,6.9,-,N/A,,Overcast,230,2013-05-11 02:35:00
10:55 PM,64.4,62.6,94,29.89,10.0,SW,8.1,-,N/A,,Overcast,230,2013-05-11 02:55:00
11:15 PM,64.4,62.6,94,29.89,10.0,SW,9.2,-,N/A,,Overcast,230,2013-05-11 03:15:00
11:35 PM,64.4,62.6,94,29.89,10.0,SW,9.2,-,N/A,,Overcast,230,2013-05-11 03:35:00
11:55 PM,64.4,62.6,94,29.89,10.0,SW,9.2,-,N/A,,Overcast,230,2013-05-11 03:55:00